Location: ???? ???? ?????
(31.2680°N, 31.7283°E)
Time: 09:14:51
(UTC+00:00)

DELTA 2 R/B (1) - Pass Details

Date: 13 July 2020
Orbit: 790 x 802 km, 39.6° (Epoch: 07 August)

Event Time Altitude Azimuth Distance (km) Brightness Sun altitude
Rises 20:06:21 0° 296° (WNW) 3,285 7.6 -30.6°
Reaches altitude 10° 20:08:56 10° 302° (WNW) 2,357 6.7 -30.9°
Enters shadow 20:14:11 47° 13° (NNE) 1,047 4.3 -31.4°
